User: anonymous   Login
Location: Unspecified
(0.0000°N, 0.0000°E)
Time: 00:02:44
(UTC+00:00)
Language:

GOES 2 - Orbit

View from above orbital plane
View from above orbital plane
View from above satellite
View from above satellite

Ground track
Ground track

The orbit data is extracted from the following two-line orbital elements,

1 10061U 77048A   23344.58514671 -.00000224  00000-0  00000-0 0  9996
2 10061   8.6046 301.5544 0011548  28.0741 120.0364  0.99402266 37135
Epoch (UTC): 10 December 2023 14:02:36
Eccentricity: 0.0011548
inclination: 8.6046°
perigee height: 35983 km
apogee height: 36081 km
right ascension of ascending node: 301.5544°
argument of perigee: 28.0741°
revolutions per day: 0.99402266
mean anomaly at epoch: 120.0364°
orbit number at epoch: 3713

The dashed part of the orbit path shows where the satellite is in the earth's shadow,  

DLR